Weather History for KCOE - January, 2013

Change the Weather History Date:

Wednesday, January 16, 2013

  Actual Average Record
Temperature  
Mean Temperature 22 °F -  
Max Temperature 30 °F 31 °F 48 °F (2011)
Min Temperature 15 °F 23 °F 3 °F (2008)
Degree Days  
Heating Degree Days 42    
Moisture  
Dew Point 20 °F    
Average Humidity 89    
Maximum Humidity 100    
Minimum Humidity 73    
Precipitation  
Precipitation 0.00 in - - ()
Sea Level Pressure  
Sea Level Pressure 30.51 in    
Wind  
Wind Speed 3 mph (ENE)    
Max Wind Speed 9 mph    
Max Gust Speed -    
Visibility 5 miles    
Events      
Averages and records for this station are not official NWS values.
T = Trace of Precipitation, MM = Missing Value Source: NWS Daily Summary

Daily Weather History Graph

Daily Weather History Graph

Search for Another Location

Airport or City:

Trip Planner

Search our weather history database for the weather conditions in past years. The results will help you decide how hot, cold, wet, or windy it might be!

Date:

Astronomy

Jan. 16, 2013 Rise Set
Actual Time 7:30 AM PST 4:24 PM PST
Civil Twilight 6:55 AM PST 4:59 PM PST
Nautical Twilight 6:17 AM PST 5:37 PM PST
Astronomical Twilight 5:40 AM PST 6:14 PM PST
Moon 9:41 AM PST (1/16) 10:51 PM PST (1/16)
Length of Visible Light 10h 03m
Length of Day
8h 54m
Waxing Crescent, 29% of the Moon is Illuminated
Jan 16
Waxing Crescent
Jan 18
First Quarter
Jan 26
Full
Feb 3
Last Quarter
Feb 9
New

Hourly Weather History & Observations

Time (PST) Temp. Windchill Dew Point Humidity Pressure Visibility Wind Dir Wind Speed Gust Speed Precip Events Conditions
12:15 AM 24.8 °F 19.1 °F 23.0 °F 93% 30.51 in 0.2 mi ENE 4.6 mph - N/A   Overcast
12:35 AM 24.8 °F 20.5 °F 24.8 °F 100% 30.50 in 0.2 mi ENE 3.5 mph - N/A   Overcast
12:55 AM 26.6 °F 22.6 °F 26.6 °F 100% 30.50 in 0.2 mi ENE 3.5 mph - N/A   Overcast
1:15 AM 26.6 °F 21.2 °F 23.0 °F 86% 30.51 in 0.2 mi NE 4.6 mph - N/A   Overcast
1:35 AM 26.6 °F - 24.8 °F 93% 30.51 in 0.2 mi Calm Calm - N/A   Overcast
1:55 AM 26.6 °F 21.2 °F 24.8 °F 93% 30.51 in 0.2 mi ESE 4.6 mph - N/A   Overcast
2:35 AM 26.6 °F - 24.8 °F 93% 30.52 in 0.8 mi Calm Calm - N/A   Overcast
2:55 AM 26.6 °F - 24.8 °F 93% 30.52 in 0.5 mi Calm Calm - N/A   Overcast
3:15 AM 26.6 °F 21.2 °F 24.8 °F 93% 30.52 in 0.5 mi East 4.6 mph - N/A   Overcast
3:35 AM 24.8 °F 20.5 °F 24.8 °F 100% 30.52 in 1.8 mi ESE 3.5 mph - N/A   Overcast
3:55 AM 24.8 °F 17.9 °F 23.0 °F 93% 30.52 in 0.8 mi NNE 5.8 mph - N/A   Overcast
4:35 AM 24.8 °F 17.9 °F 23.0 °F 93% 30.53 in 0.2 mi NE 5.8 mph - N/A   Overcast
4:55 AM 24.8 °F 17.9 °F 23.0 °F 93% 30.53 in 0.5 mi NNE 5.8 mph - N/A   Overcast
5:15 AM 24.8 °F 20.5 °F 23.0 °F 93% 30.53 in 1.0 mi NNE 3.5 mph - N/A   Overcast
5:35 AM 24.8 °F - 24.8 °F 100% 30.53 in 0.8 mi Calm Calm - N/A   Overcast
5:55 AM 26.6 °F 22.6 °F 24.8 °F 93% 30.52 in 2.0 mi SE 3.5 mph - N/A   Overcast
6:15 AM 24.8 °F - 23.0 °F 93% 30.52 in 0.8 mi Calm Calm - N/A   Overcast
6:35 AM 24.8 °F 20.5 °F 21.2 °F 86% 30.52 in 0.8 mi SSE 3.5 mph - N/A   Overcast
6:55 AM 24.8 °F 19.1 °F 21.2 °F 86% 30.51 in 5.0 mi SE 4.6 mph - N/A   Overcast
7:15 AM 24.8 °F 19.1 °F 21.2 °F 86% 30.52 in 5.0 mi SSE 4.6 mph - N/A   Overcast
7:35 AM 24.8 °F 19.1 °F 23.0 °F 93% 30.51 in 1.2 mi SSE 4.6 mph - N/A   Overcast
7:55 AM 21.2 °F 13.6 °F 19.4 °F 93% 30.53 in 6.0 mi ESE 5.8 mph - N/A   Scattered Clouds
8:15 AM 21.2 °F 13.6 °F 19.4 °F 93% 30.54 in 8.0 mi ESE 5.8 mph - N/A   Clear
8:35 AM 21.2 °F 14.9 °F 17.6 °F 86% 30.55 in 9.0 mi East 4.6 mph - N/A   Scattered Clouds
8:55 AM 17.6 °F - 17.6 °F 100% 30.55 in 5.0 mi Calm Calm - N/A   Mostly Cloudy
9:15 AM 17.6 °F - 10.4 °F 73% 30.55 in 0.2 mi Calm Calm - N/A   Overcast
9:35 AM 19.4 °F - 17.6 °F 93% 30.54 in 1.5 mi Calm Calm - N/A   Overcast
9:55 AM 19.4 °F - 17.6 °F 93% 30.55 in 5.0 mi Calm Calm - N/A   Overcast
10:15 AM 21.2 °F - 17.6 °F 86% 30.55 in 0.2 mi Calm Calm - N/A   Overcast
10:35 AM 23.0 °F - 21.2 °F 93% 30.55 in 3.0 mi Calm Calm - N/A   Partly Cloudy
11:15 AM 26.6 °F 22.6 °F 21.2 °F 80% 30.53 in 9.0 mi SW 3.5 mph - N/A   Clear
11:35 AM 26.6 °F - 24.8 °F 93% 30.52 in 9.0 mi Calm Calm - N/A   Clear
11:55 AM 26.6 °F - 23.0 °F 86% 30.51 in 10.0 mi Calm Calm - N/A   Clear
12:15 PM 26.6 °F 22.6 °F 24.8 °F 93% 30.50 in 10.0 mi North 3.5 mph - N/A   Clear
12:35 PM 28.4 °F 22.2 °F 26.6 °F 93% 30.51 in 10.0 mi North 5.8 mph - N/A   Clear
12:55 PM 28.4 °F 23.3 °F 24.8 °F 86% 30.50 in 10.0 mi North 4.6 mph - N/A   Clear
1:15 PM 30.2 °F - 28.4 °F 93% 30.49 in 10.0 mi Calm Calm - N/A   Clear
1:35 PM 30.2 °F 26.7 °F 24.8 °F 80% 30.49 in 10.0 mi NE 3.5 mph - N/A   Clear
1:55 PM 30.2 °F - 26.6 °F 86% 30.49 in 10.0 mi Calm Calm - N/A   Clear
2:15 PM 28.4 °F 24.6 °F 23.0 °F 80% 30.50 in 10.0 mi WNW 3.5 mph - N/A   Clear
2:35 PM 26.6 °F 22.6 °F 21.2 °F 80% 30.50 in 10.0 mi West 3.5 mph - N/A   Clear
2:55 PM 26.6 °F - 23.0 °F 86% 30.49 in 10.0 mi Calm Calm - N/A   Clear
3:15 PM 26.6 °F - 21.2 °F 80% 30.50 in 10.0 mi Calm Calm - N/A   Clear
3:35 PM 24.8 °F 20.5 °F 21.2 °F 86% 30.50 in 8.0 mi WNW 3.5 mph - N/A   Clear
3:55 PM 23.0 °F - 17.6 °F 80% 30.50 in 5.0 mi Calm Calm - N/A   Clear
4:15 PM 21.2 °F 16.4 °F 19.4 °F 93% 30.51 in 3.0 mi West 3.5 mph - N/A   Clear
4:35 PM 19.4 °F - 15.8 °F 86% 30.50 in 2.5 mi Calm Calm - N/A   Clear
4:55 PM 19.4 °F - 17.6 °F 93% 30.51 in 1.5 mi Calm Calm - N/A   Clear
5:15 PM 17.6 °F - 14.0 °F 86% 30.51 in 2.5 mi Calm Calm - N/A   Clear
5:35 PM 17.6 °F 12.3 °F 14.0 °F 86% 30.51 in 1.5 mi ENE 3.5 mph - N/A   Clear
5:55 PM 17.6 °F - 12.2 °F 79% 30.50 in 0.2 mi Calm Calm - N/A   Unknown
6:15 PM 15.8 °F - 14.0 °F 93% 30.50 in 0.8 mi Calm Calm - N/A   Unknown
6:35 PM 15.8 °F - 12.2 °F 86% 30.50 in 1.2 mi Calm Calm - N/A   Clear
6:55 PM 15.8 °F - 10.4 °F 79% 30.50 in 0.5 mi Calm Calm - N/A   Unknown
7:15 PM 15.8 °F - 12.2 °F 86% 30.51 in 0.2 mi Calm Calm - N/A   Unknown
7:35 PM 17.6 °F 9.3 °F 12.2 °F 79% 30.51 in 1.0 mi East 5.8 mph - N/A   Clear
7:55 PM 21.2 °F 12.6 °F 21.2 °F 100% 30.51 in 5.0 mi ENE 6.9 mph - N/A   Clear
8:15 PM 21.2 °F 13.6 °F 17.6 °F 86% 30.50 in 7.0 mi ENE 5.8 mph - N/A   Clear
8:35 PM 19.4 °F 10.4 °F 17.6 °F 93% 30.51 in 10.0 mi ENE 6.9 mph - N/A   Clear
8:55 PM 19.4 °F 10.4 °F 12.2 °F 74% 30.51 in 10.0 mi ENE 6.9 mph - N/A   Clear
9:15 PM 19.4 °F 8.6 °F 19.4 °F 100% 30.51 in 10.0 mi ENE 9.2 mph - N/A   Clear
9:35 PM 21.2 °F 10.9 °F 19.4 °F 93% 30.51 in 10.0 mi ENE 9.2 mph - N/A   Clear
9:55 PM 21.2 °F 10.9 °F 19.4 °F 93% 30.51 in 10.0 mi ENE 9.2 mph - N/A   Clear
10:15 PM 21.2 °F 13.6 °F 17.6 °F 86% 30.51 in 10.0 mi ENE 5.8 mph - N/A   Clear
10:35 PM 21.2 °F 12.6 °F 17.6 °F 86% 30.50 in 10.0 mi ENE 6.9 mph - N/A   Clear
10:55 PM 21.2 °F 14.9 °F 19.4 °F 93% 30.50 in 10.0 mi ENE 4.6 mph - N/A   Clear
11:15 PM 19.4 °F 12.8 °F 15.8 °F 86% 30.50 in 10.0 mi ENE 4.6 mph - N/A   Clear
11:35 PM 19.4 °F 11.5 °F 15.8 °F 86% 30.50 in 0.2 mi SE 5.8 mph - N/A   Overcast